| time (UTC) | temp F | wind direction | speed MPH | gust MPH | rain 1hr in | rain 24hr in | rain mn in | humidity % | barometer mb |
| 20260503192558 | 66 | 25 | 2.0 | 5.0 | 0.00 | 0.00 | 0.00 | 37 | 1019.2 |
| 20260503192058 | 63 | 86 | 1.0 | 5.0 | 0.00 | 0.00 | 0.00 | 31 | 1019.2 |
| 20260503191558 | 64 | 238 | 2.0 | 4.0 | 0.00 | 0.00 | 0.00 | 31 | 1019.4 |
| 20260503191059 | 64 | 200 | 1.0 | 5.0 | 0.00 | 0.00 | 0.00 | 33 | 1019.3 |
| 20260503190600 | 64 | 133 | 1.0 | 5.0 | 0.00 | 0.00 | 0.00 | 35 | 1019.5 |
| 20260503190058 | 63 | 219 | 0.0 | 4.0 | 0.00 | 0.00 | 0.00 | 33 | 1019.5 |
| 20260503185558 | 64 | 58 | 1.0 | 4.0 | 0.00 | 0.00 | 0.00 | 34 | 1019.6 |
| 20260503185059 | 65 | 213 | 2.0 | 4.0 | 0.00 | 0.00 | 0.00 | 31 | 1019.7 |
| 20260503184605 | 65 | 261 | 2.0 | 7.0 | 0.00 | 0.00 | 0.00 | 33 | 1019.8 |
| 20260503184059 | 64 | 251 | 3.0 | 7.0 | 0.00 | 0.00 | 0.00 | 36 | 1019.9 |
| 20260503183558 | 64 | 242 | 2.0 | 8.0 | 0.00 | 0.00 | 0.00 | 31 | 1019.9 |
| 20260503183057 | 65 | 234 | 2.0 | 8.0 | 0.00 | 0.00 | 0.00 | 39 | 1019.9 |
| 20260503182557 | 64 | 119 | 4.0 | 11.0 | 0.00 | 0.00 | 0.00 | 34 | 1020.0 |
| 20260503182056 | 64 | 227 | 3.0 | 11.0 | 0.00 | 0.00 | 0.00 | 34 | 1020.1 |
| 20260503181601 | 64 | 286 | 2.0 | 4.0 | 0.00 | 0.00 | 0.00 | 31 | 1020.1 |
| 20260503181056 | 64 | 223 | 1.0 | 6.0 | 0.00 | 0.00 | 0.00 | 37 | 1020.3 |
| 20260503180555 | 63 | 255 | 2.0 | 6.0 | 0.00 | 0.00 | 0.00 | 34 | 1020.3 |
| 20260503180106 | 63 | 191 | 2.0 | 6.0 | 0.00 | 0.00 | 0.00 | 33 | 1020.3 |
| 20260503175554 | 63 | 337 | 1.0 | 6.0 | 0.00 | 0.00 | 0.00 | 42 | 1020.3 |
| 20260503175054 | 62 | 96 | 2.0 | 8.0 | 0.00 | 0.00 | 0.00 | 34 | 1020.5 |
| 20260503174553 | 62 | 190 | 3.0 | 8.0 | 0.00 | 0.00 | 0.00 | 36 | 1020.5 |
| 20260503174057 | 63 | 212 | 2.0 | 7.0 | 0.00 | 0.00 | 0.00 | 34 | 1020.6 |
| 20260503173552 | 61 | 282 | 1.0 | 6.0 | 0.00 | 0.00 | 0.00 | 38 | 1020.6 |
| 20260503173103 | 61 | 255 | 2.0 | 6.0 | 0.00 | 0.00 | 0.00 | 41 | 1020.6 |
| 20260503172552 | 60 | 277 | 3.0 | 6.0 | 0.00 | 0.00 | 0.00 | 39 | 1020.8 |
| 20260503172052 | 60 | 78 | 3.0 | 7.0 | 0.00 | 0.00 | 0.00 | 39 | 1020.9 |
| 20260503171551 | 60 | 46 | 0.0 | 4.0 | 0.00 | 0.00 | 0.00 | 37 | 1021.0 |
| 20260503171051 | 60 | 161 | 1.0 | 8.0 | 0.00 | 0.00 | 0.00 | 37 | 1021.0 |
| 20260503170552 | 61 | 242 | 3.0 | 8.0 | 0.00 | 0.00 | 0.00 | 38 | 1021.1 |
| 20260503150540 | 56 | 60 | 0.0 | 3.0 | 0.00 | 0.00 | 0.00 | 45 | 1022.4 |
| 20260503131024 | 51 | 196 | 1.0 | 8.0 | 0.00 | 0.00 | 0.00 | 61 | 1022.4 |
| 20260503130524 | 51 | 290 | 1.0 | 6.0 | 0.00 | 0.00 | 0.00 | 62 | 1022.4 |
| 20260503110504 | 35 | 261 | 0.0 | 0.0 | 0.00 | 0.00 | 0.00 | 89 | 1021.3 |
| 20260503081546 | 37 | 305 | 0.0 | 0.0 | 0.00 | 0.00 | 0.00 | 89 | 1019.2 |
| 20260503081048 | 36 | 305 | 0.0 | 0.0 | 0.00 | 0.00 | 0.00 | 89 | 1019.2 |
| 20260503080547 | 36 | 305 | 0.0 | 0.0 | 0.00 | 0.00 | 0.00 | 89 | 1019.2 |
| 20260503072540 | 37 | 305 | 0.0 | 0.0 | 0.00 | 0.00 | 0.00 | 87 | 1018.7 |
| 20260503072038 | 37 | 305 | 0.0 | 0.0 | 0.00 | 0.00 | 0.00 | 88 | 1018.6 |
| 20260503071536 | 37 | 305 | 0.0 | 0.0 | 0.00 | 0.00 | 0.00 | 88 | 1018.6 |
| 20260503071036 | 37 | 305 | 0.0 | 1.0 | 0.00 | 0.00 | 0.00 | 88 | 1018.6 |
| 20260503070540 | 37 | 305 | 0.0 | 3.0 | 0.00 | 0.00 | 0.00 | 87 | 1018.5 |
| 20260503055023 | 41 | 305 | 0.0 | 0.0 | 0.00 | 0.00 | 0.00 | 81 | 1018.1 |
| 20260503054535 | 40 | 305 | 0.0 | 0.0 | 0.00 | 0.00 | 0.00 | 81 | 1018.1 |
| 20260503054025 | 41 | 305 | 0.0 | 0.0 | 0.00 | 0.00 | 0.00 | 80 | 1018.1 |
| 20260503053522 | 41 | 305 | 0.0 | 0.0 | 0.00 | 0.00 | 0.00 | 80 | 1018.1 |
| 20260503053025 | 41 | 305 | 0.0 | 0.0 | 0.00 | 0.00 | 0.00 | 80 | 1018.2 |
| 20260503052521 | 41 | 305 | 0.0 | 0.0 | 0.00 | 0.00 | 0.00 | 80 | 1018.2 |
| 20260503052020 | 41 | 305 | 0.0 | 0.0 | 0.00 | 0.00 | 0.00 | 79 | 1018.3 |
| 20260503051520 | 41 | 305 | 0.0 | 0.0 | 0.00 | 0.00 | 0.00 | 78 | 1018.2 |
| 20260503051018 | 41 | 305 | 0.0 | 0.0 | 0.00 | 0.00 | 0.00 | 77 | 1018.2 |
| 20260503050518 | 42 | 305 | 0.0 | 0.0 | 0.00 | 0.00 | 0.00 | 77 | 1018.1 |
| 20260503050019 | 42 | 305 | 0.0 | 0.0 | 0.00 | 0.00 | 0.00 | 76 | 1018.0 |
| 20260503045517 | 42 | 305 | 0.0 | 0.0 | 0.00 | 0.00 | 0.00 | 76 | 1017.9 |
| 20260503045018 | 42 | 305 | 0.0 | 0.0 | 0.00 | 0.00 | 0.00 | 76 | 1018.0 |
| 20260503044516 | 42 | 305 | 0.0 | 0.0 | 0.00 | 0.00 | 0.00 | 76 | 1017.9 |
| 20260503044014 | 42 | 305 | 0.0 | 0.0 | 0.00 | 0.00 | 0.00 | 76 | 1017.8 |
| 20260503043513 | 42 | 305 | 0.0 | 0.0 | 0.00 | 0.00 | 0.00 | 75 | 1017.7 |
| 20260503043031 | 42 | 305 | 0.0 | 0.0 | 0.00 | 0.00 | 0.00 | 74 | 1017.8 |
| 20260503042519 | 43 | 305 | 0.0 | 0.0 | 0.00 | 0.00 | 0.00 | 73 | 1017.7 |
| 20260503042012 | 43 | 305 | 0.0 | 0.0 | 0.00 | 0.00 | 0.00 | 72 | 1017.6 |
| 20260503041511 | 43 | 305 | 0.0 | 0.0 | 0.00 | 0.00 | 0.00 | 72 | 1017.6 |
| 20260503041016 | 43 | 305 | 0.0 | 0.0 | 0.00 | 0.00 | 0.00 | 72 | 1017.4 |
| 20260503040509 | 43 | 305 | 0.0 | 0.0 | 0.00 | 0.00 | 0.00 | 71 | 1017.4 |
| 20260503040007 | 43 | 305 | 0.0 | 0.0 | 0.00 | 0.00 | 0.00 | 71 | 1017.3 |
| 20260503035507 | 44 | 305 | 0.0 | 0.0 | 0.00 | 0.00 | 0.00 | 71 | 1017.2 |
| 20260503035007 | 44 | 305 | 0.0 | 0.0 | 0.00 | 0.00 | 0.00 | 68 | 1017.2 |
| 20260503034506 | 44 | 305 | 0.0 | 0.0 | 0.00 | 0.00 | 0.00 | 68 | 1017.2 |
| 20260503034004 | 45 | 305 | 0.0 | 0.0 | 0.00 | 0.00 | 0.00 | 67 | 1017.1 |
| 20260503033504 | 45 | 305 | 0.0 | 0.0 | 0.00 | 0.00 | 0.00 | 65 | 1017.2 |
| 20260503033015 | 45 | 305 | 0.0 | 0.0 | 0.00 | 0.00 | 0.00 | 65 | 1017.2 |
| 20260503032504 | 45 | 305 | 0.0 | 0.0 | 0.00 | 0.00 | 0.00 | 65 | 1017.2 |
| 20260503032002 | 45 | 305 | 0.0 | 0.0 | 0.00 | 0.00 | 0.00 | 64 | 1017.1 |
| 20260503031502 | 46 | 305 | 0.0 | 0.0 | 0.00 | 0.00 | 0.00 | 62 | 1017.0 |
| 20260503031101 | 46 | 305 | 0.0 | 0.0 | 0.00 | 0.00 | 0.00 | 61 | 1017.1 |
| 20260503030559 | 46 | 305 | 0.0 | 0.0 | 0.00 | 0.00 | 0.00 | 61 | 1017.1 |
| 20260503030104 | 47 | 305 | 0.0 | 0.0 | 0.00 | 0.00 | 0.00 | 62 | 1017.0 |
| 20260503025557 | 47 | 305 | 0.0 | 0.0 | 0.00 | 0.00 | 0.00 | 61 | 1016.9 |
| 20260503025056 | 47 | 305 | 0.0 | 0.0 | 0.00 | 0.00 | 0.00 | 58 | 1017.0 |
| 20260503024555 | 48 | 305 | 0.0 | 0.0 | 0.00 | 0.00 | 0.00 | 56 | 1016.9 |
| 20260503024055 | 48 | 305 | 0.0 | 0.0 | 0.00 | 0.00 | 0.00 | 56 | 1016.8 |
| 20260503023554 | 48 | 305 | 0.0 | 0.0 | 0.00 | 0.00 | 0.00 | 56 | 1016.9 |
| 20260503023100 | 48 | 305 | 0.0 | 0.0 | 0.00 | 0.00 | 0.00 | 55 | 1016.8 |
| 20260503022551 | 49 | 305 | 0.0 | 0.0 | 0.00 | 0.00 | 0.00 | 55 | 1016.7 |
| 20260503022050 | 49 | 305 | 0.0 | 0.0 | 0.00 | 0.00 | 0.00 | 55 | 1016.7 |
| 20260503021556 | 49 | 305 | 0.0 | 0.0 | 0.00 | 0.00 | 0.00 | 55 | 1016.6 |
| 20260503021049 | 49 | 305 | 0.0 | 0.0 | 0.00 | 0.00 | 0.00 | 53 | 1016.6 |
| 20260503020548 | 50 | 305 | 0.0 | 0.0 | 0.00 | 0.00 | 0.00 | 52 | 1016.5 |
| 20260503020056 | 50 | 305 | 0.0 | 0.0 | 0.00 | 0.00 | 0.00 | 53 | 1016.5 |
| 20260503015546 | 50 | 305 | 0.0 | 0.0 | 0.00 | 0.00 | 0.00 | 52 | 1016.4 |
| 20260503015045 | 50 | 305 | 0.0 | 0.0 | 0.00 | 0.00 | 0.00 | 53 | 1016.4 |
| 20260503014545 | 50 | 305 | 0.0 | 0.0 | 0.00 | 0.00 | 0.00 | 52 | 1016.3 |
| 20260503014044 | 51 | 305 | 0.0 | 0.0 | 0.00 | 0.00 | 0.00 | 53 | 1016.4 |
| 20260503013543 | 51 | 305 | 0.0 | 0.0 | 0.00 | 0.00 | 0.00 | 50 | 1016.4 |
| 20260503013043 | 51 | 305 | 0.0 | 0.0 | 0.00 | 0.00 | 0.00 | 51 | 1016.3 |
| 20260503012544 | 51 | 305 | 0.0 | 0.0 | 0.00 | 0.00 | 0.00 | 51 | 1016.2 |
| 20260503012041 | 52 | 305 | 0.0 | 0.0 | 0.00 | 0.00 | 0.00 | 49 | 1016.1 |
| 20260503011540 | 52 | 305 | 0.0 | 0.0 | 0.00 | 0.00 | 0.00 | 48 | 1016.0 |
| 20260503011041 | 52 | 305 | 0.0 | 0.0 | 0.00 | 0.00 | 0.00 | 48 | 1016.0 |
| 20260503010540 | 53 | 305 | 0.0 | 1.0 | 0.00 | 0.00 | 0.00 | 48 | 1015.7 |
| 20260503010041 | 53 | 305 | 0.0 | 2.0 | 0.00 | 0.00 | 0.00 | 48 | 1015.7 |
| 20260503005539 | 53 | 305 | 0.0 | 3.0 | 0.00 | 0.00 | 0.00 | 47 | 1015.6 |
| 20260503005039 | 53 | 305 | 1.0 | 5.0 | 0.00 | 0.00 | 0.00 | 47 | 1015.5 |
| 20260503004552 | 54 | 298 | 1.0 | 5.0 | 0.00 | 0.00 | 0.00 | 48 | 1015.5 |
| 20260503004039 | 54 | 302 | 0.0 | 3.0 | 0.00 | 0.00 | 0.00 | 46 | 1015.4 |
| 20260503003539 | 54 | 11 | 0.0 | 3.0 | 0.00 | 0.00 | 0.00 | 47 | 1015.4 |
| 20260503003056 | 54 | 301 | 0.0 | 2.0 | 0.00 | 0.00 | 0.00 | 47 | 1015.2 |
| 20260503002538 | 55 | 287 | 0.0 | 2.0 | 0.00 | 0.00 | 0.00 | 45 | 1015.2 |
| 20260503002040 | 55 | 287 | 0.0 | 3.0 | 0.00 | 0.00 | 0.00 | 45 | 1015.1 |
| 20260503001546 | 56 | 286 | 0.0 | 2.0 | 0.00 | 0.00 | 0.00 | 45 | 1015.0 |
| 20260503001040 | 56 | 286 | 0.0 | 2.0 | 0.00 | 0.00 | 0.00 | 45 | 1014.9 |
| 20260503000538 | 56 | 321 | 0.0 | 2.0 | 0.00 | 0.00 | 0.00 | 43 | 1014.8 |
| 20260503000039 | 57 | 274 | 0.0 | 7.0 | 0.00 | 0.00 | 0.00 | 43 | 1014.8 |
| 20260502235537 | 57 | 294 | 0.0 | 7.0 | 0.00 | 0.00 | 0.00 | 41 | 1014.8 |
| 20260502235037 | 57 | 313 | 0.0 | 8.0 | 0.00 | 0.00 | 0.00 | 41 | 1014.6 |
| 20260502234538 | 58 | 269 | 3.0 | 8.0 | 0.00 | 0.00 | 0.00 | 39 | 1014.5 |
| 20260502234037 | 58 | 355 | 1.0 | 8.0 | 0.00 | 0.00 | 0.00 | 40 | 1014.4 |
| 20260502233536 | 58 | 309 | 0.0 | 8.0 | 0.00 | 0.00 | 0.00 | 40 | 1014.3 |
| 20260502233036 | 58 | 355 | 1.0 | 5.0 | 0.00 | 0.00 | 0.00 | 40 | 1014.2 |
| 20260502232536 | 58 | 327 | 0.0 | 5.0 | 0.00 | 0.00 | 0.00 | 41 | 1014.0 |
| 20260502232036 | 58 | 225 | 0.0 | 5.0 | 0.00 | 0.00 | 0.00 | 41 | 1014.0 |
| 20260502231536 | 58 | 344 | 1.0 | 4.0 | 0.00 | 0.00 | 0.00 | 41 | 1014.0 |
| 20260502231038 | 58 | 284 | 0.0 | 4.0 | 0.00 | 0.00 | 0.00 | 41 | 1013.8 |
| 20260502230536 | 59 | 341 | 1.0 | 4.0 | 0.00 | 0.00 | 0.00 | 39 | 1013.9 |
| 20260502230036 | 59 | 315 | 1.0 | 9.0 | 0.00 | 0.00 | 0.00 | 39 | 1013.8 |
| 20260502225536 | 59 | 267 | 2.0 | 9.0 | 0.00 | 0.00 | 0.00 | 38 | 1013.9 |
| 20260502225034 | 60 | 319 | 1.0 | 8.0 | 0.00 | 0.00 | 0.00 | 39 | 1013.7 |
| 20260502224537 | 60 | 339 | 2.0 | 9.0 | 0.00 | 0.00 | 0.00 | 38 | 1013.6 |
| 20260502224034 | 60 | 5 | 2.0 | 9.0 | 0.00 | 0.00 | 0.00 | 37 | 1013.5 |
| 20260502223534 | 61 | 268 | 3.0 | 10.0 | 0.00 | 0.00 | 0.00 | 36 | 1013.5 |
| 20260502223034 | 61 | 313 | 2.0 | 9.0 | 0.00 | 0.00 | 0.00 | 38 | 1013.3 |
| 20260502222534 | 61 | 299 | 2.0 | 11.0 | 0.00 | 0.00 | 0.00 | 35 | 1013.3 |
| 20260502222033 | 62 | 287 | 3.0 | 10.0 | 0.00 | 0.00 | 0.00 | 36 | 1013.3 |
| 20260502221533 | 62 | 288 | 3.0 | 10.0 | 0.00 | 0.00 | 0.00 | 38 | 1013.2 |
| 20260502221033 | 61 | 15 | 2.0 | 8.0 | 0.00 | 0.00 | 0.00 | 35 | 1013.0 |
| 20260502220533 | 61 | 38 | 1.0 | 6.0 | 0.00 | 0.00 | 0.00 | 36 | 1013.1 |
| 20260502220035 | 62 | 314 | 2.0 | 6.0 | 0.00 | 0.00 | 0.00 | 36 | 1013.0 |
| 20260502215533 | 63 | 360 | 0.0 | 7.0 | 0.00 | 0.00 | 0.00 | 35 | 1012.9 |
| 20260502215032 | 62 | 245 | 1.0 | 8.0 | 0.00 | 0.00 | 0.00 | 35 | 1012.7 |
| 20260502214532 | 63 | 329 | 2.0 | 8.0 | 0.00 | 0.00 | 0.00 | 35 | 1012.6 |
| 20260502214032 | 62 | 292 | 2.0 | 5.0 | 0.00 | 0.00 | 0.00 | 36 | 1012.6 |
| 20260502213531 | 62 | 318 | 1.0 | 4.0 | 0.00 | 0.00 | 0.00 | 34 | 1012.5 |
| 20260502213038 | 62 | 330 | 1.0 | 4.0 | 0.00 | 0.00 | 0.00 | 36 | 1012.5 |
| 20260502212532 | 62 | 24 | 0.0 | 10.0 | 0.00 | 0.00 | 0.00 | 41 | 1012.4 |
| 20260502212031 | 62 | 312 | 1.0 | 10.0 | 0.00 | 0.00 | 0.00 | 42 | 1012.4 |
| 20260502211530 | 62 | 271 | 4.0 | 8.0 | 0.00 | 0.00 | 0.00 | 40 | 1012.5 |
| 20260502211030 | 62 | 34 | 1.0 | 7.0 | 0.00 | 0.00 | 0.00 | 44 | 1012.4 |
| 20260502210530 | 63 | 347 | 0.0 | 5.0 | 0.00 | 0.00 | 0.00 | 42 | 1012.3 |
| 20260502210030 | 63 | 246 | 1.0 | 4.0 | 0.00 | 0.00 | 0.00 | 39 | 1012.4 |
| 20260502205529 | 63 | 246 | 0.0 | 4.0 | 0.00 | 0.00 | 0.00 | 45 | 1012.4 |
| 20260502205029 | 63 | 202 | 1.0 | 4.0 | 0.00 | 0.00 | 0.00 | 40 | 1012.3 |
| 20260502204535 | 62 | 292 | 0.0 | 2.0 | 0.00 | 0.00 | 0.00 | 42 | 1012.3 |
| 20260502204027 | 62 | 233 | 0.0 | 4.0 | 0.00 | 0.00 | 0.00 | 41 | 1012.3 |
| 20260502203528 | 62 | 12 | 0.0 | 7.0 | 0.00 | 0.00 | 0.00 | 44 | 1012.3 |
| 20260502203037 | 62 | 261 | 3.0 | 6.0 | 0.00 | 0.00 | 0.00 | 40 | 1012.4 |
| 20260502202527 | 62 | 256 | 1.0 | 5.0 | 0.00 | 0.00 | 0.00 | 45 | 1012.5 |
| 20260502202027 | 62 | 214 | 2.0 | 5.0 | 0.00 | 0.00 | 0.00 | 40 | 1012.5 |
| 20260502201527 | 62 | 198 | 0.0 | 6.0 | 0.00 | 0.00 | 0.00 | 43 | 1012.5 |
| 20260502201026 | 62 | 211 | 2.0 | 6.0 | 0.00 | 0.00 | 0.00 | 41 | 1012.5 |
| 20260502200526 | 62 | 217 | 0.0 | 7.0 | 0.00 | 0.00 | 0.00 | 43 | 1012.5 |
| 20260502200045 | 63 | 158 | 2.0 | 7.0 | 0.00 | 0.00 | 0.00 | 41 | 1012.6 |
| 20260502195525 | 63 | 254 | 0.0 | 3.0 | 0.00 | 0.00 | 0.00 | 44 | 1012.7 |
| 20260502195023 | 62 | 219 | 1.0 | 3.0 | 0.00 | 0.00 | 0.00 | 42 | 1012.8 |
| 20260502194522 | 62 | 202 | 1.0 | 3.0 | 0.00 | 0.00 | 0.00 | 45 | 1012.8 |
| 20260502194021 | 62 | 159 | 0.0 | 4.0 | 0.00 | 0.00 | 0.00 | 47 | 1012.9 |
| 20260502193521 | 61 | 105 | 1.0 | 6.0 | 0.00 | 0.00 | 0.00 | 42 | 1012.9 |
| 20260502193023 | 61 | 261 | 1.0 | 6.0 | 0.00 | 0.00 | 0.00 | 41 | 1013.0 |
| 20260502192621 | 62 | 190 | 1.0 | 4.0 | 0.00 | 0.00 | 0.00 | 42 | 1013.0 |